Time,TemperatureF,DewpointF,PressureIn,WindDirection,WindDirectionDegrees,WindSpeedMPH,WindSpeedGustMPH,Humidity,HourlyPrecipIn,Conditions,Clouds,dailyrainin,SoftwareType,DateUTC
2013-02-09 00:01:00,26.0,23.0,30.40,ESE,103,0.0,2.0,90,0.00,,,0.00,,2013-02-09 06:01:00,
2013-02-09 00:11:00,26.0,23.0,30.40,ESE,103,0.0,2.0,90,0.00,,,0.00,,2013-02-09 06:11:00,
2013-02-09 00:21:00,26.0,23.0,30.40,ESE,115,0.0,2.0,90,0.00,,,0.00,,2013-02-09 06:21:00,
2013-02-09 00:32:00,26.0,24.0,30.39,East,94,0.0,3.0,91,0.00,,,0.00,,2013-02-09 06:32:00,
2013-02-09 00:42:00,26.0,24.0,30.39,East,94,0.0,3.0,91,0.00,,,0.00,,2013-02-09 06:42:00,
2013-02-09 00:51:00,26.0,23.0,30.39,ESE,119,0.0,3.0,90,0.00,,,0.00,,2013-02-09 06:51:00,
2013-02-09 01:01:00,26.0,23.0,30.38,South,180,0.0,4.0,90,0.00,,,0.00,,2013-02-09 07:01:00,
2013-02-09 01:11:00,26.0,23.0,30.38,South,180,0.0,4.0,90,0.00,,,0.00,,2013-02-09 07:11:00,
2013-02-09 01:21:00,26.0,23.0,30.39,SSE,161,1.0,5.0,90,0.00,,,0.00,,2013-02-09 07:21:00,
2013-02-09 01:31:00,27.0,24.0,30.39,South,190,1.0,4.0,90,0.00,,,0.00,,2013-02-09 07:31:00,
2013-02-09 01:42:00,27.0,24.0,30.39,South,190,1.0,4.0,90,0.00,,,0.00,,2013-02-09 07:42:00,
2013-02-09 01:51:00,27.0,24.0,30.39,South,186,0.0,3.0,90,0.00,,,0.00,,2013-02-09 07:51:00,
2013-02-09 02:01:00,27.0,24.0,30.39,SSE,162,1.0,3.0,90,0.00,,,0.00,,2013-02-09 08:01:00,
2013-02-09 02:11:00,27.0,24.0,30.39,SSE,162,1.0,3.0,90,0.00,,,0.00,,2013-02-09 08:11:00,
2013-02-09 02:21:00,27.0,24.0,30.40,South,186,0.0,3.0,89,0.00,,,0.00,,2013-02-09 08:21:00,
2013-02-09 02:31:00,27.0,24.0,30.40,South,178,1.0,4.0,88,0.00,,,0.00,,2013-02-09 08:31:00,
2013-02-09 02:42:00,27.0,24.0,30.40,South,178,1.0,4.0,88,0.00,,,0.00,,2013-02-09 08:42:00,
2013-02-09 02:52:00,27.0,24.0,30.38,SSE,159,0.0,3.0,88,0.00,,,0.00,,2013-02-09 08:52:00,
2013-02-09 03:03:00,28.0,25.0,30.38,South,190,0.0,4.0,88,0.00,,,0.00,,2013-02-09 09:03:00,
2013-02-09 03:11:00,28.0,25.0,30.38,South,190,0.0,4.0,88,0.00,,,0.00,,2013-02-09 09:11:00,
2013-02-09 03:21:00,27.0,24.0,30.38,SE,136,1.0,5.0,88,0.00,,,0.00,,2013-02-09 09:21:00,
2013-02-09 03:31:00,28.0,25.0,30.38,SSE,150,2.0,5.0,87,0.00,,,0.00,,2013-02-09 09:31:00,
2013-02-09 03:42:00,28.0,25.0,30.38,SSE,150,2.0,5.0,87,0.00,,,0.00,,2013-02-09 09:42:00,
2013-02-09 03:51:00,28.0,24.0,30.38,South,184,2.0,5.0,86,0.00,,,0.00,,2013-02-09 09:51:00,
2013-02-09 04:01:00,28.0,25.0,30.37,South,172,1.0,4.0,87,0.00,,,0.00,,2013-02-09 10:01:00,
2013-02-09 04:11:00,28.0,25.0,30.37,South,172,1.0,4.0,87,0.00,,,0.00,,2013-02-09 10:11:00,
2013-02-09 04:21:00,28.0,24.0,30.38,SSE,157,1.0,4.0,86,0.00,,,0.00,,2013-02-09 10:21:00,
2013-02-09 04:32:00,28.0,24.0,30.38,SSE,153,2.0,6.0,86,0.00,,,0.00,,2013-02-09 10:32:00,
2013-02-09 04:42:00,28.0,24.0,30.38,SSE,153,2.0,6.0,86,0.00,,,0.00,,2013-02-09 10:42:00,
2013-02-09 04:51:00,28.0,24.0,30.39,South,189,3.0,8.0,86,0.00,,,0.00,,2013-02-09 10:51:00,
2013-02-09 05:01:00,28.0,24.0,30.38,South,179,2.0,6.0,85,0.00,,,0.00,,2013-02-09 11:01:00,
2013-02-09 05:11:00,28.0,24.0,30.38,South,179,2.0,6.0,85,0.00,,,0.00,,2013-02-09 11:11:00,
2013-02-09 05:22:00,28.0,25.0,30.38,South,184,2.0,6.0,87,0.00,,,0.00,,2013-02-09 11:22:00,
2013-02-09 05:32:00,28.0,24.0,30.38,South,185,1.0,5.0,86,0.00,,,0.00,,2013-02-09 11:32:00,
2013-02-09 05:41:00,28.0,24.0,30.38,South,185,1.0,5.0,86,0.00,,,0.00,,2013-02-09 11:41:00,
2013-02-09 05:52:00,28.0,24.0,30.38,SE,140,1.0,6.0,86,0.00,,,0.00,,2013-02-09 11:52:00,
2013-02-09 06:02:00,28.0,24.0,30.37,SE,146,1.0,5.0,86,0.00,,,0.00,,2013-02-09 12:02:00,
2013-02-09 06:11:00,28.0,24.0,30.37,SE,146,1.0,5.0,86,0.00,,,0.00,,2013-02-09 12:11:00,
2013-02-09 06:21:00,28.0,24.0,30.37,SE,146,1.0,5.0,86,0.00,,,0.00,,2013-02-09 12:21:00,
2013-02-09 06:32:00,28.0,24.0,30.38,SSE,150,1.0,4.0,86,0.00,,,0.00,,2013-02-09 12:32:00,
2013-02-09 06:42:00,28.0,24.0,30.38,SSE,150,1.0,4.0,86,0.00,,,0.00,,2013-02-09 12:42:00,
2013-02-09 06:52:00,28.0,25.0,30.37,SSE,157,1.0,7.0,87,0.00,,,0.00,,2013-02-09 12:52:00,
2013-02-09 07:02:00,28.0,25.0,30.36,South,182,1.0,7.0,87,0.00,,,0.00,,2013-02-09 13:02:00,
2013-02-09 07:11:00,28.0,25.0,30.36,South,182,1.0,7.0,87,0.00,,,0.00,,2013-02-09 13:11:00,
2013-02-09 07:22:00,28.0,25.0,30.37,South,169,1.0,7.0,87,0.00,,,0.00,,2013-02-09 13:22:00,
2013-02-09 07:32:00,28.0,25.0,30.37,SSW,192,3.0,6.0,87,0.00,,,0.00,,2013-02-09 13:32:00,
2013-02-09 07:42:00,28.0,25.0,30.37,SSW,192,3.0,6.0,87,0.00,,,0.00,,2013-02-09 13:42:00,
2013-02-09 07:52:00,28.0,24.0,30.38,SSW,192,2.0,7.0,86,0.00,,,0.00,,2013-02-09 13:52:00,
2013-02-09 08:01:00,29.0,25.0,30.37,South,186,2.0,6.0,86,0.00,,,0.00,,2013-02-09 14:01:00,
2013-02-09 08:11:00,29.0,25.0,30.37,South,186,2.0,6.0,86,0.00,,,0.00,,2013-02-09 14:11:00,
2013-02-09 08:21:00,29.0,25.0,30.37,South,188,4.0,8.0,84,0.00,,,0.00,,2013-02-09 14:21:00,
2013-02-09 08:32:00,29.0,25.0,30.37,South,174,4.0,11.0,83,0.00,,,0.00,,2013-02-09 14:32:00,
2013-02-09 08:42:00,29.0,25.0,30.37,South,174,4.0,11.0,83,0.00,,,0.00,,2013-02-09 14:42:00,
2013-02-09 08:52:00,29.0,25.0,30.38,SE,144,3.0,7.0,85,0.00,,,0.00,,2013-02-09 14:52:00,
2013-02-09 09:02:00,29.0,25.0,30.37,South,186,1.0,7.0,84,0.00,,,0.00,,2013-02-09 15:02:00,
2013-02-09 09:11:00,29.0,25.0,30.37,South,186,1.0,7.0,84,0.00,,,0.00,,2013-02-09 15:11:00,
2013-02-09 09:21:00,29.0,25.0,30.37,SSE,153,3.0,8.0,83,0.00,,,0.00,,2013-02-09 15:21:00,
2013-02-09 09:32:00,30.0,25.0,30.37,SSW,192,3.0,6.0,83,0.00,,,0.00,,2013-02-09 15:32:00,
2013-02-09 09:42:00,30.0,25.0,30.37,SSW,192,3.0,6.0,83,0.00,,,0.00,,2013-02-09 15:42:00,
2013-02-09 09:51:00,30.0,25.0,30.37,South,173,2.0,7.0,83,0.00,,,0.00,,2013-02-09 15:51:00,
2013-02-09 10:01:00,30.0,25.0,30.37,SSW,200,3.0,8.0,82,0.00,,,0.00,,2013-02-09 16:01:00,
2013-02-09 10:11:00,30.0,25.0,30.37,SSW,200,3.0,8.0,82,0.00,,,0.00,,2013-02-09 16:11:00,
2013-02-09 10:22:00,30.0,25.0,30.37,SSW,197,5.0,7.0,82,0.00,,,0.00,,2013-02-09 16:22:00,
2013-02-09 10:31:00,30.0,25.0,30.37,South,182,5.0,11.0,82,0.00,,,0.00,,2013-02-09 16:31:00,
2013-02-09 10:42:00,30.0,25.0,30.37,South,182,5.0,11.0,82,0.00,,,0.00,,2013-02-09 16:42:00,
2013-02-09 10:51:00,30.0,25.0,30.37,South,189,5.0,10.0,81,0.00,,,0.00,,2013-02-09 16:51:00,
2013-02-09 11:01:00,30.0,25.0,30.36,South,188,4.0,8.0,83,0.00,,,0.00,,2013-02-09 17:01:00,
2013-02-09 11:11:00,30.0,25.0,30.36,South,188,4.0,8.0,83,0.00,,,0.00,,2013-02-09 17:11:00,
2013-02-09 11:21:00,30.0,25.0,30.36,South,189,5.0,10.0,82,0.00,,,0.00,,2013-02-09 17:21:00,
2013-02-09 11:32:00,30.0,26.0,30.35,SSE,157,2.0,7.0,84,0.00,,,0.00,,2013-02-09 17:32:00,
2013-02-09 11:42:00,30.0,26.0,30.35,SSE,157,2.0,7.0,84,0.00,,,0.00,,2013-02-09 17:42:00,
2013-02-09 11:52:00,30.0,25.0,30.34,South,180,4.0,9.0,83,0.00,,,0.00,,2013-02-09 17:52:00,
2013-02-09 12:02:00,31.0,27.0,30.33,South,191,5.0,7.0,84,0.00,,,0.00,,2013-02-09 18:02:00,
2013-02-09 12:12:00,31.0,27.0,30.33,South,191,5.0,7.0,84,0.00,,,0.00,,2013-02-09 18:12:00,
2013-02-09 12:23:00,31.0,27.0,30.32,SSE,168,6.0,11.0,84,0.00,,,0.00,,2013-02-09 18:23:00,
2013-02-09 12:32:00,31.0,27.0,30.32,South,169,4.0,10.0,84,0.00,,,0.00,,2013-02-09 18:32:00,
2013-02-09 12:42:00,31.0,27.0,30.32,South,169,4.0,10.0,84,0.00,,,0.00,,2013-02-09 18:42:00,
2013-02-09 12:51:00,31.0,27.0,30.30,South,183,4.0,9.0,84,0.00,,,0.00,,2013-02-09 18:51:00,
2013-02-09 13:01:00,31.0,26.0,30.30,South,182,5.0,11.0,83,0.00,,,0.00,,2013-02-09 19:01:00,
2013-02-09 13:11:00,31.0,26.0,30.30,South,182,5.0,11.0,83,0.00,,,0.00,,2013-02-09 19:11:00,
2013-02-09 13:22:00,32.0,28.0,30.29,SSE,161,4.0,8.0,84,0.00,,,0.00,,2013-02-09 19:22:00,
2013-02-09 13:32:00,32.0,27.0,30.28,South,180,5.0,9.0,83,0.00,,,0.00,,2013-02-09 19:32:00,
2013-02-09 13:42:00,32.0,27.0,30.28,South,180,5.0,9.0,83,0.00,,,0.00,,2013-02-09 19:42:00,
2013-02-09 13:52:00,33.0,29.0,30.27,South,174,5.0,12.0,84,0.00,,,0.00,,2013-02-09 19:52:00,
2013-02-09 14:01:00,32.0,27.0,30.27,SSW,195,6.0,12.0,81,0.00,,,0.00,,2013-02-09 20:01:00,
2013-02-09 14:11:00,32.0,27.0,30.27,SSW,195,6.0,12.0,81,0.00,,,0.00,,2013-02-09 20:11:00,
2013-02-09 14:21:00,33.0,28.0,30.25,South,182,6.0,11.0,83,0.00,,,0.00,,2013-02-09 20:21:00,
2013-02-09 14:32:00,34.0,28.0,30.24,South,186,7.0,12.0,80,0.00,,,0.00,,2013-02-09 20:32:00,
2013-02-09 14:42:00,34.0,28.0,30.24,South,186,7.0,12.0,80,0.00,,,0.00,,2013-02-09 20:42:00,
2013-02-09 14:52:00,34.0,29.0,30.24,South,178,6.0,11.0,81,0.00,,,0.00,,2013-02-09 20:52:00,
2013-02-09 15:02:00,35.0,29.0,30.22,SSE,166,6.0,12.0,79,0.00,,,0.00,,2013-02-09 21:02:00,
2013-02-09 15:11:00,35.0,29.0,30.22,SSE,166,6.0,12.0,79,0.00,,,0.00,,2013-02-09 21:11:00,
2013-02-09 15:21:00,33.0,28.0,30.22,South,186,7.0,12.0,81,0.00,,,0.00,,2013-02-09 21:21:00,
2013-02-09 15:32:00,34.0,29.0,30.22,SSW,201,5.0,13.0,82,0.00,,,0.00,,2013-02-09 21:32:00,
2013-02-09 15:42:00,34.0,29.0,30.22,SSW,201,5.0,13.0,82,0.00,,,0.00,,2013-02-09 21:42:00,
2013-02-09 15:52:00,33.0,29.0,30.21,ESE,109,3.0,9.0,84,0.00,,,0.00,,2013-02-09 21:52:00,
2013-02-09 16:01:00,34.0,30.0,30.20,South,179,6.0,11.0,84,0.00,,,0.00,,2013-02-09 22:01:00,
2013-02-09 16:11:00,34.0,30.0,30.20,South,179,6.0,11.0,84,0.00,,,0.00,,2013-02-09 22:11:00,
2013-02-09 16:21:00,33.0,29.0,30.20,South,179,3.0,10.0,84,0.00,,,0.00,,2013-02-09 22:21:00,
2013-02-09 16:32:00,33.0,29.0,30.19,South,177,7.0,13.0,84,0.00,,,0.00,,2013-02-09 22:32:00,
2013-02-09 16:42:00,33.0,29.0,30.19,South,177,7.0,13.0,84,0.00,,,0.00,,2013-02-09 22:42:00,
2013-02-09 16:52:00,34.0,30.0,30.19,South,186,5.0,10.0,85,0.00,,,0.00,,2013-02-09 22:52:00,
2013-02-09 17:01:00,33.0,29.0,30.18,SSW,200,4.0,10.0,86,0.00,,,0.00,,2013-02-09 23:01:00,
2013-02-09 17:11:00,33.0,29.0,30.18,SSW,200,4.0,10.0,86,0.00,,,0.00,,2013-02-09 23:11:00,
2013-02-09 17:21:00,33.0,30.0,30.17,South,182,4.0,8.0,87,0.00,,,0.00,,2013-02-09 23:21:00,
2013-02-09 17:32:00,32.0,29.0,30.17,SSW,192,2.0,5.0,88,0.00,,,0.00,,2013-02-09 23:32:00,
2013-02-09 17:42:00,32.0,29.0,30.17,SSW,192,2.0,5.0,88,0.00,,,0.00,,2013-02-09 23:42:00,
2013-02-09 17:52:00,32.0,29.0,30.17,South,189,1.0,5.0,89,0.00,,,0.00,,2013-02-09 23:52:00,
2013-02-09 18:02:00,32.0,29.0,30.16,SSE,148,0.0,2.0,90,0.00,,,0.00,,2013-02-10 00:02:00,
2013-02-09 18:12:00,32.0,29.0,30.16,SSE,148,0.0,2.0,90,0.00,,,0.00,,2013-02-10 00:12:00,
2013-02-09 18:22:00,32.0,29.0,30.16,SSE,148,0.0,2.0,90,0.00,,,0.00,,2013-02-10 00:22:00,
2013-02-09 18:32:00,32.0,30.0,30.16,SSE,154,0.0,1.0,91,0.00,,,0.00,,2013-02-10 00:32:00,
2013-02-09 18:42:00,32.0,30.0,30.16,SSE,154,0.0,1.0,91,0.00,,,0.00,,2013-02-10 00:42:00,
2013-02-09 18:52:00,32.0,30.0,30.15,SE,138,0.0,2.0,91,0.00,,,0.00,,2013-02-10 00:52:00,
2013-02-09 19:01:00,32.0,30.0,30.14,SE,138,0.0,1.0,91,0.00,,,0.00,,2013-02-10 01:01:00,
2013-02-09 19:12:00,32.0,30.0,30.14,SE,138,0.0,1.0,91,0.00,,,0.00,,2013-02-10 01:12:00,
2013-02-09 19:21:00,32.0,30.0,30.14,SSE,148,0.0,2.0,92,0.00,,,0.00,,2013-02-10 01:21:00,
2013-02-09 19:32:00,32.0,30.0,30.13,SSE,165,0.0,1.0,92,0.00,,,0.00,,2013-02-10 01:32:00,
2013-02-09 19:42:00,32.0,30.0,30.13,SSE,165,0.0,1.0,92,0.00,,,0.00,,2013-02-10 01:42:00,
2013-02-09 19:51:00,32.0,30.0,30.13,SSE,159,1.0,3.0,92,0.00,,,0.00,,2013-02-10 01:51:00,
2013-02-09 20:01:00,32.0,30.0,30.12,South,173,0.0,2.0,93,0.00,,,0.00,,2013-02-10 02:01:00,
2013-02-09 20:11:00,32.0,30.0,30.12,South,173,0.0,2.0,93,0.00,,,0.00,,2013-02-10 02:11:00,
2013-02-09 20:22:00,32.0,30.0,30.12,SSW,200,1.0,4.0,93,0.00,,,0.00,,2013-02-10 02:22:00,
2013-02-09 20:32:00,32.0,30.0,30.11,SSW,194,1.0,6.0,93,0.00,,,0.00,,2013-02-10 02:32:00,
2013-02-09 20:42:00,32.0,30.0,30.11,SSW,194,1.0,6.0,93,0.00,,,0.00,,2013-02-10 02:42:00,
2013-02-09 20:52:00,33.0,31.0,30.11,SSW,193,2.0,5.0,92,0.00,,,0.00,,2013-02-10 02:52:00,
2013-02-09 21:02:00,33.0,31.0,30.11,SSW,196,3.0,6.0,91,0.00,,,0.00,,2013-02-10 03:02:00,
2013-02-09 21:11:00,33.0,31.0,30.11,SSW,196,3.0,6.0,91,0.00,,,0.00,,2013-02-10 03:11:00,
2013-02-09 21:21:00,33.0,30.0,30.11,South,179,1.0,6.0,90,0.00,,,0.00,,2013-02-10 03:21:00,
2013-02-09 21:32:00,33.0,30.0,30.11,South,180,3.0,6.0,90,0.00,,,0.00,,2013-02-10 03:32:00,
2013-02-09 21:42:00,33.0,30.0,30.11,South,180,3.0,6.0,90,0.00,,,0.00,,2013-02-10 03:42:00,
2013-02-09 21:51:00,32.0,29.0,30.10,South,184,2.0,4.0,90,0.00,,,0.00,,2013-02-10 03:51:00,
2013-02-09 22:01:00,32.0,29.0,30.09,South,185,2.0,6.0,90,0.00,,,0.00,,2013-02-10 04:01:00,
2013-02-09 22:11:00,32.0,29.0,30.09,South,185,2.0,6.0,90,0.00,,,0.00,,2013-02-10 04:11:00,
2013-02-09 22:21:00,32.0,29.0,30.09,South,181,3.0,6.0,90,0.00,,,0.00,,2013-02-10 04:21:00,
2013-02-09 22:32:00,32.0,29.0,30.09,SSE,159,2.0,4.0,90,0.00,,,0.00,,2013-02-10 04:32:00,
2013-02-09 22:42:00,32.0,29.0,30.09,SSE,159,2.0,4.0,90,0.00,,,0.00,,2013-02-10 04:42:00,
2013-02-09 22:51:00,32.0,29.0,30.08,SSE,157,1.0,7.0,90,0.00,,,0.00,,2013-02-10 04:51:00,
2013-02-09 23:01:00,32.0,29.0,30.08,South,187,0.0,3.0,90,0.00,,,0.00,,2013-02-10 05:01:00,
2013-02-09 23:11:00,32.0,29.0,30.08,South,187,0.0,3.0,90,0.00,,,0.00,,2013-02-10 05:11:00,
2013-02-09 23:22:00,32.0,29.0,30.08,South,187,0.0,3.0,90,0.00,,,0.00,,2013-02-10 05:22:00,
2013-02-09 23:31:00,32.0,29.0,30.06,South,186,0.0,3.0,90,0.00,,,0.00,,2013-02-10 05:31:00,
2013-02-09 23:42:00,32.0,29.0,30.06,South,186,0.0,3.0,90,0.00,,,0.00,,2013-02-10 05:42:00,
2013-02-09 23:52:00,32.0,29.0,30.06,SSE,167,1.0,4.0,90,0.00,,,0.00,,2013-02-10 05:52:00,